Lid_Strength_Index
3 2 2 1 1 1 2 2 3 6 5 3 3 0 0 0 1 1 1 5 6 7 6 5 4 4 4 3 3 2 2 2 2 2 2 2 2 2
3 2 2 2 1 1 2 2 3 3 5 2 2 2 0 0 1 1 1 5 7 8 8 7 6 5 5 5 5 4 4 3 3 3 3 3 2 2
3 3 2 1 1 1 1 2 2 3 4 3 1 1 1 1 0 1 1 2 5 8 8 8 8 7 7 6 6 6 5 5 4 4 4 3 3 2
3 3 2 1 2 1 1 2 2 2 3 4 3 2 2 1 1 1 1 0 1 7 8 9 9 8 8 8 8 7 7 6 6 5 5 4 4 3
2 2 2 2 2 2 2 2 2 2 2 3 4 2 2 1 2 1 1 1 1 5 9 9 9 9 9 9 8 8 8 8 8 8 8 7 6 5
2 2 2 1 2 2 2 2 2 2 2 2 3 3 2 3 2 2 3 3 3 3 7 8 9 9 9 9 9 9 9 9 8 8 9 9 9 8
2 2 2 2 5 3 2 2 2 2 3 3 4 3 4 4 3 2 2 3 4 4 6 7 8 8 8 10 8 9 9 9 9 9 9 9 10 9
3 2 2 6 7 9 9 8 4 3 3 4 4 4 4 5 4 3 3 6 7 4 4 7 6 8 7 8 9 10 10 10 10 9 9 9 10 10
6 2 3 3 7 4 10 11 10 10 9 3 4 4 4 5 4 6 6 6 6 7 2 5 6 5 5 6 9 11 10 11 10 10 10 10 11 11
10 10 8 8 9 4 4 5 4 4 5 7 3 3 3 4 4 3 4 5 10 11 5 9 13 10 10 5 9 9 11 11 11 11 11 11 11 11
11 11 10 11 15 13 6 5 5 5 8 10 8 9 9 9 6 5 10 12 14 14 13 11 15 15 16 15 11 10 10 11 11 11 11 12 12 12
14 12 15 15 15 15 10 10 9 6 7 9 7 9 10 10 11 3 5 6 15 15 15 11 16 15 15 16 16 13 11 12 12 12 12 12 12 10
16 15 15 15 15 15 15 11 13 13 15 12 11 9 6 7 8 7 4 5 12 13 12 10 16 16 15 15 16 15 14 15 14 13 12 11 11 10
17 16 16 16 15 15 15 15 16 16 16 15 15 15 14 13 10 9 9 8 11 8 11 11 15 14 14 16 14 16 16 15 13 14 13 12 12 11
16 16 16 15 15 16 16 16 17 17 16 16 16 16 16 15 16 16 17 16 16 16 13 14 14 14 14 15 15 16 16 16 15 15 14 14 14 14
16 16 16 17 17 17 17 16 16 16 16 16 16 16 16 16 16 16 16 17 16 16 16 15 13 14 16 15 15 16 15 15 15 15 15 15 14 14
17 17 16 17 17 17 17 16 16 16 16 16 16 16 16 16 16 16 16 16 15 15 17 16 15 14 15 15 15 15 16 16 15 15 15 15 15 15
16 16 17 17 17 17 17 16 16 16 15 15 15 15 15 15 15 16 16 15 15 15 16 16 16 15 15 15 14 15 15 16 16 15 15 15 16 15
16 16 16 17 17 16 16 16 16 15 15 14 15 15 15 15 15 16 16 16 16 16 16 16 15 15 16 15 16 15 15 15 15 16 15 15 16 16
13 14 15 15 16 16 16 16 16 16 15 14 14 14 15 15 16 16 15 15 15 16 17 15 14 13 13 15 17 17 14 15 15 16 17 16 16 15
13 13 12 13 13 13 13 14 15 15 15 15 14 15 15 15 15 15 15 15 15 15 15 15 14 14 15 15 16 18 17 14 14 15 15 16 16 16
12 12 12 12 12 12 12 13 13 13 13 13 13 14 15 14 13 14 14 14 13 14 14 15 15 14 15 15 17 18 18 17 15 15 15 15 16 16
11 11 11 12 12 13 12 12 13 14 14 12 12 13 13 13 12 12 12 12 13 13 14 15 14 13 15 15 16 17 18 17 16 16 16 15 14 14